This is the latest recevied weather packets stored in our database for station/object N4ZIQ. If no packets are shown the sender has not sent any weather packets the latest 10 day(s).
| Time | Temp. | Humidity | Pressure | Rain* | Wind** | Luminosity | Snow |
|---|---|---|---|---|---|---|---|
| 1777764046 | 21.11° C | 92% | 1011.4 hPa | 1.02 mm | - | 0 W/m² | - |
| 1777763752 | 21.11° C | 92% | 1011.4 hPa | 1.02 mm | - | 11 W/m² | - |
| 1777763447 | 21.11° C | 92% | 1011.4 hPa | 1.02 mm | - | 14 W/m² | - |
| 1777763146 | 21.11° C | 92% | 1011.1 hPa | 0.76 mm | - | 11 W/m² | - |
| 1777762853 | 21.11° C | 92% | 1011.4 hPa | 0.76 mm | - | 7 W/m² | - |
| 1777762545 | 21.11° C | 92% | 1011.5 hPa | 0.76 mm | - | 7 W/m² | - |
| 1777762244 | 21.11° C | 92% | 1011.4 hPa | 0.51 mm | - | 7 W/m² | - |
| 1777761950 | 21.11° C | 92% | 1011.6 hPa | 0.51 mm | - | 7 W/m² | - |
| 1777761646 | 21.11° C | 92% | 1011.6 hPa | 0.51 mm | - | 7 W/m² | - |
| 1777761344 | 21.11° C | 92% | 1011.8 hPa | 0.25 mm | - | 9 W/m² | - |
| 1777761053 | 21.11° C | 91% | 1011.8 hPa | 0.25 mm | - | 11 W/m² | - |
| 1777760745 | 21.11° C | 91% | 1011.6 hPa | 0.25 mm | - | 12 W/m² | - |
| 1777760445 | 21.11° C | 91% | 1011.4 hPa | 0 mm | - | 16 W/m² | - |
| 1777760169 | 21.11° C | 91% | 1011.1 hPa | 0 mm | - | 16 W/m² | - |
| 1777759845 | 21.11° C | 91% | 1011.2 hPa | 0 mm | - | 19 W/m² | - |
| 1777759548 | 21.11° C | 91% | 1011.2 hPa | 0 mm | - | 23 W/m² | - |
| 1777759270 | 21.11° C | 91% | 1011.2 hPa | 0 mm | - | 25 W/m² | - |
| 1777758945 | 21.11° C | 92% | 1011.3 hPa | 0 mm | - | 28 W/m² | - |
| 1777758646 | 21.11° C | 92% | 1011.4 hPa | 0.25 mm | - | 30 W/m² | - |
| 1777758355 | 21.11° C | 92% | 1011 hPa | 0.51 mm | - | 37 W/m² | - |
| 1777758045 | 21.11° C | 92% | 1011 hPa | 0.76 mm | - | 44 W/m² | - |
| 1777757746 | 21.11° C | 92% | 1011.1 hPa | 0.76 mm | - | 49 W/m² | - |
| 1777757451 | 21.11° C | 91% | 1010.9 hPa | 0.76 mm | - | 47 W/m² | - |
| 1777757145 | 21.11° C | 91% | 1010.7 hPa | 0.76 mm | - | 54 W/m² | - |
| 1777756845 | 21.11° C | 91% | 1010.8 hPa | 0.76 mm | - | 54 W/m² | - |
* Rain latest hour (hover to see other rain measurements)
** Current wind speed in m/s (hover to see current wind gust speed)